Location: Island Grove Observatory.
(44.2333°N, 79.4500°W)
Time: 12:25:22
(UTC-05:00)

N. Korean satellite - Pass Details

Date: 06 December 2021
Orbit: 447 x 491 km, 97.3° (Epoch: 23 January)

Event Time Altitude Azimuth Distance (km) Brightness Sun altitude
Rises 06:43:20 0° 352° (N) 2,463 9.8 -9.7°
Reaches altitude 10° 06:46:12 10° 325° (NW) 1,582 8.7 -9.2°
Maximum altitude 06:47:53 13° 295° (WNW) 1,386 8.2 -9.0°
Drops below altitude 10° 06:49:34 10° 265° (W) 1,575 8.6 -8.7°
Sets 06:52:25 0° 237° (WSW) 2,442 9.8 -8.2°
